Change the Weather History Date:

Monday, August 13, 2012

  Actual Average Record
Temperature  
Mean Temperature 74 °F -  
Max Temperature 82 °F - - ()
Min Temperature 66 °F - - ()
Cooling Degree Days 8    
Growing Degree Days 24 (Base 50)    
Moisture  
Dew Point 62 °F    
Average Humidity 68    
Maximum Humidity 100    
Minimum Humidity 47    
Precipitation  
Precipitation 0.46 in - - ()
Sea Level Pressure  
Sea Level Pressure 29.95 in    
Wind  
Wind Speed 10 mph (NNW)    
Max Wind Speed 16 mph    
Max Gust Speed 26 mph    
Visibility 9 miles    
Events Rain , Thunderstorm    
T = Trace of Precipitation, MM = Missing Value Source: NWS Daily Summary

Daily Weather History Graph

Daily Weather History Graph

Search for Another Location

Airport or City:

Trip Planner

Search our weather history database for the weather conditions in past years. The results will help you decide how hot, cold, wet, or windy it might be!

Date:

Astronomy

Aug. 13, 2012 Rise Set
Actual Time 6:34 AM CDT 8:09 PM CDT
Civil Twilight 6:06 AM CDT 8:36 PM CDT
Nautical Twilight 5:33 AM CDT 9:09 PM CDT
Astronomical Twilight 4:58 AM CDT 9:44 PM CDT
Moon 2:41 AM CDT (8/13) 5:18 PM CDT (8/13)
Length of Visible Light 14h 30m
Length of Day
13h 35m
Waning Crescent, 16% of the Moon is Illuminated
Aug 13
Waning Crescent
Aug 17
New
Aug 24
First Quarter
Aug 31
Full
Sep 8
Last Quarter

Hourly Weather History & Observations

Time (CDT) Temp. Heat Index Dew Point Humidity Pressure Visibility Wind Dir Wind Speed Gust Speed Precip Events Conditions
12:53 AM 77.0 °F - 62.1 °F 60% 29.85 in 10.0 mi SSW 15.0 mph 26.5 mph N/A Thunderstorm Thunderstorm
1:01 AM 77.0 °F - 66.2 °F 69% 29.93 in 10.0 mi North 11.5 mph 24.2 mph N/A Thunderstorm Thunderstorm
1:25 AM 71.6 °F - 69.8 °F 94% 29.95 in 1.8 mi North 8.1 mph 23.0 mph 0.18 in Rain , Thunderstorm Heavy Thunderstorms and Rain
1:33 AM 71.6 °F - 71.6 °F 100% 29.95 in 3.0 mi NNW 12.7 mph - 0.21 in Rain , Thunderstorm Thunderstorms and Rain
1:53 AM 72.0 °F - - N/A% 29.91 in 6.0 mi NW 11.5 mph - 0.25 in Rain , Thunderstorm Light Thunderstorms and Rain
2:01 AM 71.6 °F - - N/A% 29.95 in 1.8 mi WNW 12.7 mph - 0.17 in Rain , Thunderstorm Heavy Thunderstorms and Rain
2:10 AM 73.4 °F - - N/A% 29.96 in 3.0 mi West 4.6 mph - 0.21 in Rain , Thunderstorm Thunderstorms and Rain
2:50 AM 71.6 °F - - N/A% 29.93 in 10.0 mi WSW 4.6 mph - 0.21 in   Clear
2:53 AM 71.1 °F - - N/A% 29.88 in 10.0 mi WSW 5.8 mph - 0.21 in   Clear
3:53 AM 71.1 °F - - N/A% 29.88 in 10.0 mi West 6.9 mph - N/A   Clear
4:53 AM 70.0 °F - 69.1 °F 97% 29.90 in 10.0 mi NNW 4.6 mph - N/A   Clear
5:53 AM 69.1 °F - 69.1 °F 100% 29.91 in 10.0 mi Calm Calm - N/A   Clear
6:53 AM 66.9 °F - 64.9 °F 93% 29.93 in 10.0 mi Calm Calm - N/A   Clear
7:53 AM 69.1 °F - 63.0 °F 81% 29.93 in 10.0 mi NW 8.1 mph - N/A   Clear
8:53 AM 71.1 °F - 62.1 °F 73% 29.96 in 10.0 mi NW 11.5 mph - N/A   Clear
9:53 AM 73.0 °F - 61.0 °F 66% 29.97 in 10.0 mi NW 10.4 mph - N/A   Clear
10:53 AM 75.0 °F - 60.1 °F 60% 29.98 in 10.0 mi NNW 12.7 mph - N/A   Clear
11:53 AM 77.0 °F - 59.0 °F 54% 29.99 in 10.0 mi NW 10.4 mph 16.1 mph N/A   Scattered Clouds
12:53 PM 80.1 °F 80.7 °F 59.0 °F 48% 29.99 in 10.0 mi North 10.4 mph 19.6 mph N/A   Scattered Clouds
1:53 PM 81.0 °F 81.3 °F 59.0 °F 47% 29.98 in 10.0 mi NNW 13.8 mph 21.9 mph N/A   Scattered Clouds
2:53 PM 80.1 °F 80.7 °F 59.0 °F 48% 29.98 in 10.0 mi NNW 10.4 mph 20.7 mph N/A   Overcast
3:53 PM 81.0 °F 81.7 °F 61.0 °F 50% 29.97 in 10.0 mi North 16.1 mph 21.9 mph N/A   Mostly Cloudy
4:53 PM 80.1 °F 80.9 °F 60.1 °F 50% 29.96 in 10.0 mi North 16.1 mph 19.6 mph N/A   Scattered Clouds
5:53 PM 80.1 °F 80.9 °F 60.1 °F 50% 29.96 in 10.0 mi North 12.7 mph - N/A   Clear
6:53 PM 79.0 °F - 59.0 °F 50% 29.96 in 10.0 mi North 9.2 mph - N/A   Partly Cloudy
7:53 PM 75.0 °F - 60.1 °F 60% 29.96 in 10.0 mi North 6.9 mph - N/A   Clear
8:53 PM 73.0 °F - 61.0 °F 66% 29.97 in 10.0 mi NNE 6.9 mph - N/A   Mostly Cloudy
9:53 PM 71.1 °F - 60.1 °F 68% 29.99 in 10.0 mi NE 5.8 mph - N/A   Clear
10:53 PM 68.0 °F - 61.0 °F 78% 30.01 in 10.0 mi NNE 4.6 mph - N/A   Clear
11:53 PM 66.9 °F - 60.1 °F 79% 30.01 in 10.0 mi NNE 3.5 mph - N/A   Clear